Regional Weather Roundup
Issued by NWS Sioux Falls, SD

Home | Current Version | Previous Version | Text Only | Print | Product List | Glossary Off
Versions: 1 2 3 4 5 6 7 8 9 10 11 12 13 14 15 16 17 18 19 20 21 22 23 24 25 26 27 28 29 30 31 32 33 34 35 36 37 38 39 40 41 42 43 44 45 46 47 48 49 50

000
ASUS43 KFSD 300710
RWRFSD

WEATHER ROUNDUP FOR SE SOUTH DAKOTA/SW MINNESOTA/NW IOWA
NATIONAL WEATHER SERVICE SIOUX FALLS SD
100 AM CST FRI JAN 30 2015

NOTE: "FAIR" INDICATES FEW OR NO CLOUDS BELOW 12,000 FEET WITH NO
SIGNIFICANT WEATHER AND OR OBSTRUCTIONS TO VISIBILITY.


SDZ038>040-050-052>070-300800-
SOUTHEAST SOUTH DAKOTA

CITY           SKY/WX    TMP DP  RH WIND       PRES   REMARKS
CHAMBERLAIN    CLEAR     21  18  90 SE8       30.48F WCI  11
HURON          CLEAR     18  15  88 S5        30.51F WCI  11
MADISON        CLOUDY    19  19 100 E3        30.50F
MITCHELL       CLEAR     20  17  88 S7        30.53F WCI  11
SIOUX FALLS    MOCLDY    19  15  84 CALM      30.52F
WINNER         FAIR      24  19  81 SE10      30.44F WCI  14
YANKTON        CLEAR     19  18  93 CALM      30.55F
$$

MNZ071-072-080-081-089-090-097-098-300800-
SOUTHWEST MINNESOTA

CITY           SKY/WX    TMP DP  RH WIND       PRES   REMARKS
FAIRMONT       CLEAR     16   9  73 NW14      30.53S WCI   1
JACKSON        CLEAR     18  12  79 N7        30.53S WCI   8
LUVERNE        CLOUDY    23  18  80 N6        30.53F WCI  16
MARSHALL       CLOUDY    16  10  79 NE7       30.56S WCI   6
MONTEVIDEO     CLEAR     10   9  92 NE8       30.56F WCI  -1
PIPESTONE      CLOUDY    19  16  86 CALM      30.50F
REDWOOD FALLS  CLEAR     14  10  84 N6        30.55F WCI   5
TRACY          CLOUDY    18  14  84 N6        30.53F WCI  10
WINDOM         CLEAR     16  12  86 N7        30.53F WCI   6
WORTHINGTON    CLOUDY    18  12  79 N7        30.53S WCI   8
$$

IAZ001>003-012>014-020>022-031-032-NEZ013-014-SDZ071-300800-
NORTHWEST IOWA

CITY           SKY/WX    TMP DP  RH WIND       PRES   REMARKS
CHEROKEE       CLEAR     20  17  88 N6        30.55S WCI  13
DENISON        CLEAR     21  19  93 NE7       30.52S WCI  13
ESTHERVILLE    CLEAR     16  12  84 N10       30.54R WCI   4
LE MARS        CLOUDY    23  21  93 CALM      30.55F
ORANGE CITY    CLOUDY    25  19  80 CALM      30.53S
SHELDON        CLOUDY    21  18  86 NE6       30.52F WCI  14
SIOUX CITY     CLEAR     21  17  84 CALM      30.56S
SPENCER        CLEAR     19  13  77 N7        30.54F WCI  10
STORM LAKE     CLEAR     19  16  86 N9        30.53S WCI   9
$$

ABBREVIATIONS USED IN REMARKS
   TC - TEMPERATURE IN CELSIUS
  WCI - WIND CHILL INDEX
   HX - HEAT INDEX
  VSB - VISIBILITY




USA.gov is the U.S. government's official web portal to all federal, state and local government web resources and services.